This demonstration page uses our WeatherBlox Daily Observations layout. Learn more.

Left ArrowRight Arrow

Hourly Observations for April 19, 2015

Temp ( °F °C ) Dew Point ( °F °C ) Humidity (%) Winds ( mph kmh ) Pressure ( in mb ) Visibility ( mi km ) Precip ( " mm )
12:15 am 00:15 Clear 61 16 43 6 52 52 ENE 8 13 29.97 1015 10 16.0934 N/A
12:36 am 00:36 Clear 61 16 45 7 55 55 ENE 9 15 29.97 1015 10 16.0934 N/A
12:56 am 00:56 Clear 61 16 45 7 55 55 ENE 9 15 29.97 1015 10 16.0934 N/A
1:15 am 01:15 Clear 61 16 45 7 55 55 ENE 9 15 29.94 1014 10 16.0934 N/A
1:36 am 01:36 Clear 59 15 45 7 59 59 ENE 9 15 29.94 1014 10 16.0934 N/A
1:56 am 01:56 Clear 59 15 43 6 55 55 ENE 9 15 29.94 1014 10 16.0934 N/A
2:15 am 02:15 Clear 57 14 43 6 59 59 ENE 8 13 29.94 1014 10 16.0934 N/A
2:36 am 02:36 Clear 57 14 43 6 59 59 ENE 8 13 29.94 1014 10 16.0934 N/A
2:56 am 02:56 Clear 57 14 43 6 59 59 ENE 8 13 29.91 1013 10 16.0934 N/A
3:15 am 03:15 Clear 55 13 43 6 63 63 ENE 8 13 29.91 1013 10 16.0934 N/A
3:36 am 03:36 Clear 57 14 41 5 55 55 ENE 8 13 29.91 1013 10 16.0934 N/A
3:56 am 03:56 Clear 55 13 43 6 63 63 ENE 8 13 29.91 1013 10 16.0934 N/A
4:15 am 04:15 Clear 55 13 41 5 59 59 E 7 11 29.88 1012 10 16.0934 N/A
4:36 am 04:36 Clear 57 14 41 5 55 55 E 9 15 29.88 1012 10 16.0934 N/A
4:56 am 04:56 Clear 57 14 41 5 55 55 E 9 15 29.88 1012 10 16.0934 N/A
5:15 am 05:15 Clear 57 14 41 5 55 55 E 9 15 29.88 1012 10 16.0934 N/A
5:36 am 05:36 Clear 57 14 39 4 51 51 E 12 19 29.85 1011 10 16.0934 N/A
5:56 am 05:56 Clear 57 14 37 3 48 48 E 12 19 29.85 1011 10 16.0934 N/A
6:15 am 06:15 Clear 57 14 37 3 48 48 E 10 17 29.85 1011 10 16.0934 N/A
6:36 am 06:36 Mostly Cloudy 57 14 37 3 48 48 E 9 15 29.83 1010 10 16.0934 N/A
6:56 am 06:56 Mostly Cloudy 57 14 37 3 48 48 E 9 15 29.83 1010 10 16.0934 N/A
7:15 am 07:15 Partly Cloudy 57 14 37 3 48 48 E 8 13 29.83 1010 10 16.0934 N/A
7:36 am 07:36 Partly Cloudy 55 13 37 3 51 51 E 8 13 29.83 1010 10 16.0934 N/A
7:56 am 07:56 Sunny 55 13 37 3 51 51 E 8 13 29.83 1010 10 16.0934 N/A
8:16 am 08:16 Sunny 57 14 36 2 44 44 E 10 17 29.83 1010 10 16.0934 N/A
8:36 am 08:36 Sunny 59 15 36 2 42 42 E 16 26 29.8 1009 10 16.0934 N/A
8:56 am 08:56 Sunny 59 15 36 2 42 42 E 13 20 29.8 1009 10 16.0934 N/A
9:16 am 09:16 Sunny 59 15 36 2 42 42 E 14 22 29.8 1009 10 16.0934 N/A
9:36 am 09:36 Sunny 61 16 36 2 39 39 E 10 17 29.8 1009 10 16.0934 N/A
9:56 am 09:56 Sunny 61 16 37 3 42 42 E 10 17 29.8 1009 10 16.0934 N/A
10:16 am 10:16 Sunny 61 16 37 3 42 42 ESE 8 13 29.77 1008 10 16.0934 N/A
10:36 am 10:36 Partly Cloudy 61 16 37 3 42 42 ESE 12 19 29.77 1008 10 16.0934 N/A
10:56 am 10:56 Cloudy 57 14 41 5 55 55 ESE 10 17 29.77 1008 10 16.0934 N/A
11:16 am 11:16 Cloudy 57 14 45 7 63 63 ESE 10 17 29.77 1008 10 16.0934 N/A
11:36 am 11:36 Cloudy 57 14 45 7 63 63 ESE 13 20 29.74 1007 7 11.26538 N/A
11:55 am 11:55 Cloudy 57 14 48 9 72 72 E 12 19 29.74 1007 10 16.0934 N/A
12:16 pm 12:16 Cloudy 55 13 54 12 94 94 E 14 22 29.71 1006 5 8.0467 N/A
12:36 pm 12:36 Cloudy 55 13 55 13 100 100 E 14 22 29.71 1006 4 6.43736 N/A
12:55 pm 12:55 Cloudy 55 13 N/A N/A E 14 22 29.68 1005 3 4.82802 N/A
1:16 pm 13:16 Cloudy 55 13 N/A N/A E 13 20 29.68 1005 5 8.0467 N/A
1:36 pm 13:36 Cloudy 57 14 N/A N/A ESE 14 22 29.65 1004 5 8.0467 N/A
1:56 pm 13:56 Cloudy 57 14 N/A N/A E 13 20 29.65 1004 4 6.43736 N/A
2:16 pm 14:16 Cloudy 57 14 N/A N/A ESE 15 24 29.65 1004 3 4.82802 N/A
2:36 pm 14:36 Cloudy 59 15 N/A N/A ESE 12 19 29.62 1003 4 6.43736 N/A
2:56 pm 14:56 Cloudy 59 15 N/A N/A ESE 13 20 29.59 1002 4 6.43736 N/A
3:16 pm 15:16 Cloudy 59 15 N/A N/A ESE 9 15 29.59 1002 1.75 2.816345 N/A
3:36 pm 15:36 Cloudy 59 15 N/A N/A E 8 13 29.56 1001 4 6.43736 N/A
3:56 pm 15:56 Cloudy 61 16 N/A N/A E 13 20 29.5 999 3 4.82802 N/A
4:16 pm 16:16 Cloudy 61 16 N/A N/A E 12 19 29.47 998 2.5 4.02335 N/A
4:35 pm 16:35 Cloudy 61 16 N/A N/A ENE 9 15 29.44 997 3 4.82802 N/A
4:56 pm 16:56 Cloudy 61 16 N/A N/A E 8 13 29.44 997 2 3.21868 N/A
5:16 pm 17:16 Cloudy 63 17 N/A N/A ESE 10 17 29.41 996 2.5 4.02335 N/A
5:35 pm 17:35 Cloudy 63 17 N/A N/A ESE 13 20 29.41 996 2.5 4.02335 N/A
5:56 pm 17:56 Cloudy 63 17 N/A N/A SE 13 20 29.41 996 5 8.0467 N/A
6:16 pm 18:16 Cloudy 63 17 N/A N/A S 13 20 29.38 995 5 8.0467 N/A
6:36 pm 18:36 Cloudy 64 18 N/A N/A S 14 22 29.38 995 10 16.0934 N/A
6:56 pm 18:56 Cloudy 63 17 N/A N/A SSW 13 20 29.38 995 10 16.0934 N/A
7:16 pm 19:16 Cloudy 63 17 N/A N/A SSW 9 15 29.38 995 10 16.0934 N/A
7:36 pm 19:36 Cloudy 63 17 N/A N/A SSW 10 17 29.38 995 10 16.0934 N/A
7:56 pm 19:56 Cloudy 63 17 N/A N/A S 10 17 29.38 995 10 16.0934 N/A
8:16 pm 20:16 Cloudy 63 17 N/A N/A S 8 13 29.38 995 10 16.0934 N/A
8:36 pm 20:36 Mostly Cloudy 63 17 N/A N/A S 7 11 29.35 994 10 16.0934 N/A
8:56 pm 20:56 Mostly Cloudy 63 17 N/A N/A S 8 13 29.35 994 10 16.0934 N/A
9:16 pm 21:16 Mostly Cloudy 63 17 N/A N/A S 8 13 29.35 994 10 16.0934 N/A
9:36 pm 21:36 Cloudy 63 17 N/A N/A SSE 8 13 29.35 994 10 16.0934 N/A
9:56 pm 21:56 Cloudy 63 17 N/A N/A S 10 17 29.35 994 10 16.0934 N/A
10:15 pm 22:15 Cloudy 63 17 N/A N/A S 9 15 29.35 994 10 16.0934 N/A
10:36 pm 22:36 Cloudy 63 17 N/A N/A S 9 15 29.32 993 7 11.26538 N/A
10:56 pm 22:56 Cloudy 63 17 N/A N/A SSW 12 19 29.32 993 7 11.26538 N/A
11:16 pm 23:16 Mostly Cloudy 63 17 N/A N/A SW 9 15 29.32 993 10 16.0934 N/A
11:36 pm 23:36 Mostly Cloudy 61 16 N/A N/A WSW 20 31 29.32 993 7 11.26538 N/A
11:56 pm 23:56 Cloudy 61 16 N/A N/A WSW 20 31 29.35 994 10 16.0934 N/A

Powered by AerisWeather